TimePST,TemperatureF,Dew PointF,Humidity,Sea Level PressureIn,VisibilityMPH,Wind Direction,Wind SpeedMPH,Gust SpeedMPH,PrecipitationIn,Events,Conditions,WindDirDegrees,DateUTC
12:54 AM,44.1,42.1,93,30.16,10.0,Calm,Calm,-,N/A,,Clear,0,2013-01-09 08:54:00
1:54 AM,44.1,42.1,93,30.17,10.0,Calm,Calm,-,N/A,,Clear,0,2013-01-09 09:54:00
2:54 AM,43.0,42.1,97,30.15,10.0,Calm,Calm,-,N/A,,Clear,0,2013-01-09 10:54:00
3:54 AM,43.0,41.0,93,30.14,10.0,Calm,Calm,-,N/A,,Clear,0,2013-01-09 11:54:00
5:54 AM,46.0,43.0,89,30.14,9.0,South,5.8,-,N/A,,Clear,190,2013-01-09 13:54:00
7:54 AM,46.0,43.0,89,30.16,10.0,SW,5.8,-,N/A,,Clear,220,2013-01-09 15:54:00
8:09 AM,46.4,42.8,87,30.12,10.0,SSW,4.6,-,N/A,,Scattered Clouds,200,2013-01-09 16:09:00
8:17 AM,46.4,44.6,93,30.12,10.0,South,3.5,-,N/A,,Mostly Cloudy,190,2013-01-09 16:17:00
8:54 AM,48.9,45.0,86,30.16,10.0,South,3.5,-,N/A,,Overcast,190,2013-01-09 16:54:00
9:54 AM,51.1,46.9,86,30.15,7.0,WSW,3.5,-,N/A,,Overcast,250,2013-01-09 17:54:00
10:10 AM,51.8,46.4,82,30.12,7.0,West,3.5,-,N/A,,Overcast,260,2013-01-09 18:10:00
10:54 AM,52.0,48.0,86,30.15,7.0,West,3.5,-,N/A,,Overcast,270,2013-01-09 18:54:00
11:54 AM,53.1,48.0,83,30.13,10.0,West,6.9,-,N/A,,Overcast,260,2013-01-09 19:54:00
12:40 PM,53.6,48.2,82,30.07,10.0,WSW,5.8,-,N/A,,Overcast,250,2013-01-09 20:40:00
12:54 PM,53.1,48.0,83,30.10,10.0,SW,6.9,-,N/A,,Overcast,230,2013-01-09 20:54:00
1:54 PM,53.1,46.9,80,30.09,10.0,SW,6.9,-,N/A,,Overcast,220,2013-01-09 21:54:00
2:54 PM,53.1,46.9,80,30.10,10.0,SW,13.8,-,N/A,,Mostly Cloudy,230,2013-01-09 22:54:00
3:54 PM,53.1,46.9,80,30.09,10.0,SW,6.9,-,N/A,,Overcast,220,2013-01-09 23:54:00
4:54 PM,52.0,48.9,89,30.09,5.0,Variable,5.8,-,N/A,,Overcast,0,2013-01-10 00:54:00
4:59 PM,51.8,48.2,88,30.05,1.8,West,13.8,20.7,0.04,Rain,Rain,280,2013-01-10 00:59:00
5:04 PM,51.8,48.2,88,30.05,1.2,West,16.1,21.9,0.04,Rain,Rain,270,2013-01-10 01:04:00
5:10 PM,50.0,48.2,94,30.05,2.0,West,12.7,21.9,0.05,Rain,Rain,260,2013-01-10 01:10:00
5:33 PM,50.0,48.2,94,30.05,8.0,West,11.5,23.0,0.05,,Overcast,260,2013-01-10 01:33:00
5:47 PM,50.0,46.4,87,30.05,10.0,West,11.5,19.6,0.05,,Overcast,260,2013-01-10 01:47:00
5:54 PM,50.0,46.9,89,30.09,9.0,West,16.1,25.3,0.05,,Overcast,280,2013-01-10 01:54:00
6:54 PM,48.9,44.1,83,30.11,10.0,West,10.4,20.7,N/A,,Overcast,280,2013-01-10 02:54:00
7:52 PM,48.2,41.0,76,30.08,10.0,West,6.9,-,N/A,,Overcast,270,2013-01-10 03:52:00
7:54 PM,48.0,41.0,77,30.12,10.0,Variable,5.8,-,N/A,,Overcast,0,2013-01-10 03:54:00
8:30 PM,48.2,42.8,82,30.09,9.0,WSW,3.5,-,N/A,,Overcast,240,2013-01-10 04:30:00
8:54 PM,48.9,43.0,80,30.14,10.0,West,5.8,-,N/A,,Overcast,280,2013-01-10 04:54:00
9:12 PM,48.2,42.8,82,30.10,10.0,Variable,4.6,-,N/A,,Overcast,0,2013-01-10 05:12:00
9:54 PM,48.9,41.0,74,30.14,10.0,Calm,Calm,-,N/A,,Mostly Cloudy,0,2013-01-10 05:54:00
10:28 PM,48.2,41.0,76,30.11,6.0,WNW,15.0,23.0,0.02,,Haze,290,2013-01-10 06:28:00
10:54 PM,48.0,39.9,74,30.16,10.0,West,18.4,24.2,0.02,,Overcast,280,2013-01-10 06:54:00
11:54 PM,48.0,37.0,66,30.17,10.0,WNW,8.1,17.3,N/A,,Overcast,300,2013-01-10 07:54:00